Home   Weather   Catania   Past weeks

Flag for Italy Past Weather in Catania, Italy — Yesterday and Last 2 Weeks

Now
64 °F

Passing clouds.


Feels Like: 64 °F
Forecast: 53 / 70 °F
Wind: 10 mph from East

Location: Catania / Fontanarossa

Current Time: Apr 26, 2017 at 12:31:23 pm

Latest Report: Apr 26, 2017 at 11:50 am


Visibility: N/A

Pressure: 30.04 "Hg

Humidity: 73%

Dew Point: 55 °F

Location of CataniaLocation

Past Weather in Catania — Graph

°F

Catania Temperature Yesterday

Maximum temperature yesterday: 64 °F (at 12:50 pm)
Minimum temperature yesterday: 43 °F (at 5:50 am)
Average temperature yesterday: 56 °F

High & Low Weather Summary for the Past Weeks

 TemperatureHumidityPressure
High75 °F (Apr 15, 12:20 pm)100% (Apr 14, 3:20 am)30.27 "Hg (Apr 14, 3:20 am)
Low37 °F (Apr 21, 6:20 am)27% (Apr 14, 11:50 am)29.80 "Hg (Apr 19, 5:50 am)
Average57 °F69%30.03 "Hg
* Reported Apr 11 11:20 am — Apr 26 11:20 am, Catania, Weather by CustomWeather, © 2017

Note: Actual official high and low records may vary slightly from our data, if they occured in-between our weather recording intervals... More about our weather records

Advertising

Catania Weather History for the Previous 24 Hours

Scroll right to see more
 ConditionsComfort  
Time TempWeatherWind HumidityBarometerVisibility
11:20 am
Wed, Apr 26
64 °FPassing clouds.9 mph73%30.04 "HgN/A
10:50 am66 °FPassing clouds.5 mph68%30.04 "HgN/A
10:20 am64 °FPassing clouds.6 mph68%30.04 "HgN/A
9:50 am64 °FScattered clouds.5 mph68%30.04 "HgN/A
9:20 am63 °FScattered clouds.3 mph77%30.04 "HgN/A
8:50 am63 °FScattered clouds.No wind73%30.04 "HgN/A
8:20 am57 °FPartly sunny.3 mph82%30.04 "HgN/A
7:50 am55 °FPartly sunny.No wind88%30.04 "HgN/A
7:20 am54 °FPartly sunny.3 mph88%30.04 "HgN/A
6:50 am54 °FPartly sunny.3 mph88%30.04 "HgN/A
6:20 am54 °FPartly sunny.5 mph88%30.01 "HgN/A
5:50 am54 °FPassing clouds.3 mph82%30.01 "HgN/A
5:20 am57 °FPassing clouds.3 mph77%30.01 "HgN/A
4:50 am57 °FPassing clouds.3 mph77%30.04 "HgN/A
4:20 am57 °FPassing clouds.3 mph77%30.04 "HgN/A
3:50 am55 °FPassing clouds.2 mph82%30.04 "HgN/A
3:20 am55 °FPassing clouds.6 mph82%30.04 "HgN/A
2:50 am55 °FPassing clouds.5 mph82%30.04 "HgN/A
2:20 am55 °FPassing clouds.6 mph88%30.04 "HgN/A
1:50 am55 °FClear.6 mph82%30.04 "Hg10 mi
1:20 am57 °FPassing clouds.7 mph82%30.04 "HgN/A
12:50 am57 °FPassing clouds.7 mph82%30.07 "HgN/A
12:20 am57 °FPassing clouds.7 mph82%30.07 "HgN/A
11:50 pm
Tue, Apr 25
59 °FPassing clouds.6 mph77%30.07 "HgN/A
11:20 pm57 °FPassing clouds.7 mph82%30.07 "HgN/A
10:50 pm57 °FPassing clouds.8 mph82%30.07 "HgN/A
10:20 pm57 °FPassing clouds.7 mph82%30.07 "HgN/A
9:50 pm57 °FPassing clouds.7 mph82%30.07 "HgN/A
8:50 pm59 °FPassing clouds.9 mph77%30.04 "HgN/A
8:20 pm59 °FClear.10 mph77%30.04 "Hg10 mi
7:50 pm59 °FClear.10 mph72%30.04 "Hg10 mi
7:20 pm59 °FSunny.10 mph72%30.04 "Hg10 mi
6:50 pm61 °FPassing clouds.10 mph68%30.04 "HgN/A
6:20 pm61 °FPassing clouds.10 mph68%30.04 "HgN/A
5:50 pm63 °FPassing clouds.10 mph68%30.07 "HgN/A
5:20 pm63 °FPassing clouds.13 mph64%30.07 "HgN/A
4:50 pm63 °FPassing clouds.13 mph64%30.07 "HgN/A
4:20 pm64 °FPassing clouds.13 mph64%30.07 "HgN/A
3:50 pm63 °FPassing clouds.14 mph68%30.07 "HgN/A
3:20 pm63 °FPassing clouds.14 mph64%30.07 "HgN/A
2:50 pm63 °FPassing clouds.14 mph64%30.09 "HgN/A
2:20 pm63 °FPassing clouds.14 mph64%30.09 "HgN/A
1:50 pm64 °FPassing clouds.13 mph60%30.09 "HgN/A
1:20 pm64 °FPassing clouds.13 mph56%30.09 "HgN/A
12:50 pm64 °FPassing clouds.10 mph64%30.09 "HgN/A
12:20 pm63 °FPassing clouds.13 mph68%30.09 "HgN/A
Weather by CustomWeather, © 2017

See weather overviewHow to use our weather pages